Retour au catalogue

DELTA 1 DEB

ActifLEO
NORAD 7181·DEBRIS·🇺🇸 United States

Lancé Nov 6, 1973 depuis Vandenberg Space Force Base

Loading…

Prochains Passages (prochaines 24 heures)

TLE

FraisSource: Space-Track

Époque: Sep 14, 2026, 08:34 UTC

1 07181U 73086ES  26257.35758804  .00000163  00000-0  12488-2 0  9998
2 07181 102.4020  40.7291 0102878 292.7672  93.5560 12.57259664421622

Suivez DELTA 1 DEB en temps réel avec AllMySat

Download on the App Store